(300851) = 2007 YD25

Discovered at Mount Lemmon on 2007-12-18 by Mt. Lemmon Survey.

Orbit

Orbit type: Main Belt

Note: WebGL enabled browser required.

epoch2023-09-13.0
epoch JD2460200.5
perihelion date2020-07-01.90438
perihelion JD2459032.40438
argument of perihelion (°)148.38722
ascending node (°)202.18604
inclination (°)6.46689
eccentricity0.0780751
perihelion distance (AU)2.5149409
Tisserand w.r.t. Jupiter3.3
ΔV w.r.t. Earth (km/sec)10.1
semimajor axis (AU)2.7279238
mean anomaly (°)255.52529
mean daily motion (°/day)0.21875370
aphelion distance (AU)2.941
period (years)4.51
P-vector [x]0.98523637
P-vector [y]-0.17092138
P-vector [z]-0.00975626
Q-vector [x]0.16583265
Q-vector [y]0.93864193
Q-vector [z]0.30240842
absolute magnitude16.91
phase slope0.15
uncertainty0
referenceMPEC 2023-Q57
observations used252
oppositions15
arc length (days)8496
first opposition used2000
last opposition used2023
residual rms (arc-secs)0.75
perturbers coarse indicatorM-v
perturbers precise indicator003Ek
first observation date used2000-02-12.0
last observation date used2023-05-18.0
computer nameMPCLINUX
JD of orbit computation2456847.601835
perihelion JD uncertainty (days)1.6814E-04
argument of perihelion uncertainty (°)5.7140E-05
ascending node uncertainty (°)4.4335E-05
inclination uncertainty (°)6.6494E-06
eccentricity uncertainty 6.5991E-08
perihelion distance uncertainty (AU)1.8231E-07
Minimum Orbit Intersection Distances (in AU)
for orbit epoch: 2460200.5, reference: E2023-Q57
Mercury2.13521
Venus1.79472
Earth1.51156
Mars1.12277
Jupiter2.38764
Saturn6.28394
Uranus15.5168
Neptune27.2542

Observations

260 total observations over interval: 2000 02 12.399800 – 2023 05 18.340677
These data are available for download (format description).

Date (UT) J2000 RA J2000 Dec Magn Location Ref
2000 02 12.399800 11 23 30.068 -02 30 31.74 21.51 V 645 – Apache Point-Sloan Digital Sky Survey MPS 253072
2000 02 12.403272 11 23 29.946 -02 30 30.86 22.43   645 – Apache Point-Sloan Digital Sky Survey MPS 253072
2005 04 02.40991 14 06 18.30 -12 03 00.8 20.2 R G96 – Mt. Lemmon Survey MPS 253072
2005 04 02.41521 14 06 18.05 -12 02 59.0 20.9 R G96 – Mt. Lemmon Survey MPS 253072
2005 04 02.42051 14 06 17.82 -12 02 56.7 21.0 R G96 – Mt. Lemmon Survey MPS 253072
2005 04 02.42581 14 06 17.54 -12 02 55.4 20.4 R G96 – Mt. Lemmon Survey MPS 253072
2005 04 17.28099 13 55 10.50 -10 30 10.9 20.8 V 691 – Steward Observatory, Kitt Peak-Spacewatch MPS 253072
2005 04 17.30638 13 55 09.20 -10 30 01.0 20.9 V 691 – Steward Observatory, Kitt Peak-Spacewatch MPS 253072
2005 04 17.32498 13 55 08.29 -10 29 53.7 20.8 V 691 – Steward Observatory, Kitt Peak-Spacewatch MPS 253072
2006 09 25.11355 20 34 19.20 -10 59 27.3 21.0 V G96 – Mt. Lemmon Survey MPS 253072
2006 09 25.11966 20 34 19.27 -10 59 28.5 21.0 V G96 – Mt. Lemmon Survey MPS 253072
2006 09 25.12587 20 34 19.30 -10 59 29.7 21.0 V G96 – Mt. Lemmon Survey MPS 253072
2006 09 25.13179 20 34 19.38 -10 59 30.5 20.9 V G96 – Mt. Lemmon Survey MPS 253072
2007 11 04.48394 05 22 55.01 +16 27 36.1   691 – Steward Observatory, Kitt Peak-Spacewatch MPS 253072
2007 11 04.50159 05 22 54.56 +16 27 32.1   691 – Steward Observatory, Kitt Peak-Spacewatch MPS 253072
2007 11 04.51924 05 22 54.03 +16 27 27.1   691 – Steward Observatory, Kitt Peak-Spacewatch MPS 253072
2007 11 13.34773 05 18 04.68 +15 53 56.1 20.6 V G96 – Mt. Lemmon Survey MPS 253072
2007 11 13.35553 05 18 04.35 +15 53 54.3 20.6 V G96 – Mt. Lemmon Survey MPS 253072
2007 11 13.36330 05 18 04.03 +15 53 52.3 20.6 V G96 – Mt. Lemmon Survey MPS 253072
2007 11 13.37110 05 18 03.74 +15 53 50.7 20.8 V G96 – Mt. Lemmon Survey MPS 253072
2007 12 18.24566 04 47 40.41 +14 05 18.0 20.1 V G96 – Mt. Lemmon Survey MPS 231926
2007 12 18.25243 04 47 40.05 +14 05 17.5 20.1 V G96 – Mt. Lemmon Survey MPS 231926
2007 12 18.25920 04 47 39.66 +14 05 16.7 19.5 V G96 – Mt. Lemmon Survey MPS 231926
2007 12 18.26588 04 47 39.30 +14 05 16.1 19.4 V G96 – Mt. Lemmon Survey MPS 231926
2007 12 19.27354 04 46 47.13 +14 03 22.3 20.2 V G96 – Mt. Lemmon Survey MPS 231926
2007 12 19.28210 04 46 46.66 +14 03 21.2 20.1 V G96 – Mt. Lemmon Survey MPS 231926
2007 12 19.29068 04 46 46.20 +14 03 20.5 20.2 V G96 – Mt. Lemmon Survey MPS 231926
2007 12 19.29925 04 46 45.76 +14 03 19.5 20.3 V G96 – Mt. Lemmon Survey MPS 231926
2009 03 01.35466 11 07 44.29 -00 42 57.3 20.8 V G96 – Mt. Lemmon Survey MPS 278750
2009 03 01.36152 11 07 43.96 -00 42 55.0 21.1 V G96 – Mt. Lemmon Survey MPS 278750
2009 03 01.36838 11 07 43.64 -00 42 52.6 20.8 V G96 – Mt. Lemmon Survey MPS 278750
2009 03 01.37527 11 07 43.21 -00 42 49.8 20.9 V G96 – Mt. Lemmon Survey MPS 278750
2011 09 22.22839 01 13 54.98 +09 49 30.4   691 – Steward Observatory, Kitt Peak-Spacewatch MPS 391197
2011 09 22.24618 01 13 54.26 +09 49 24.2   691 – Steward Observatory, Kitt Peak-Spacewatch MPS 391197
2011 09 22.26396 01 13 53.60 +09 49 17.0   691 – Steward Observatory, Kitt Peak-Spacewatch MPS 391197
2011 09 29.18360 01 09 11.47 +09 01 54.4 20.3 R J04 – ESA Optical Ground Station, Tenerife MPS 396212
2011 09 29.20501 01 09 10.49 +09 01 45.3 20.1 R J04 – ESA Optical Ground Station, Tenerife MPS 396212
2011 09 29.22643 01 09 09.50 +09 01 35.7 20.1 R J04 – ESA Optical Ground Station, Tenerife MPS 396212
2011 09 30.19737 01 08 27.53 +08 54 30.8 20.2 V 691 – Steward Observatory, Kitt Peak-Spacewatch MPS 392728
2011 09 30.21514 01 08 26.69 +08 54 23.4 20.1 V 691 – Steward Observatory, Kitt Peak-Spacewatch MPS 392728
2011 09 30.23291 01 08 25.94 +08 54 15.9 20.4 V 691 – Steward Observatory, Kitt Peak-Spacewatch MPS 392728
2011 10 25.26311 00 49 49.013 +05 42 28.42 20.6 r F51 – Pan-STARRS 1, Haleakala MPS 398113
2011 10 25.28119 00 49 48.282 +05 42 20.79 20.1 r F51 – Pan-STARRS 1, Haleakala MPS 398113
2011 11 16.18801 00 40 29.53 +03 41 43.6 21.2 V G96 – Mt. Lemmon Survey MPS 401018
2011 11 16.19488 00 40 29.46 +03 41 42.4 21.2 V G96 – Mt. Lemmon Survey MPS 401018
2011 11 16.20184 00 40 29.38 +03 41 40.9 20.8 V G96 – Mt. Lemmon Survey MPS 401018
2011 11 16.20880 00 40 29.28 +03 41 39.4 20.5 V G96 – Mt. Lemmon Survey MPS 401018
2013 01 17.48512 08 18 08.957 +09 43 04.13 20.7 w F51 – Pan-STARRS 1, Haleakala MPS 452201
2013 01 17.50047 08 18 08.109 +09 43 06.91 21.0 w F51 – Pan-STARRS 1, Haleakala MPS 452201
2013 01 17.53132 08 18 06.392 +09 43 12.24 20.8 w F51 – Pan-STARRS 1, Haleakala MPS 452201
2013 01 21.47531 08 14 32.604 +09 55 37.99 20.8 i F51 – Pan-STARRS 1, Haleakala MPS 453147
2013 01 21.48825 08 14 31.883 +09 55 40.42 20.4 i F51 – Pan-STARRS 1, Haleakala MPS 453147
2013 02 10.41482 07 57 43.255 +11 13 11.54 20.9 w F51 – Pan-STARRS 1, Haleakala MPS 456159
2013 02 10.43019 07 57 42.565 +11 13 15.41 21.1 w F51 – Pan-STARRS 1, Haleakala MPS 456159
2013 02 10.44563 07 57 41.866 +11 13 19.27 21.4 w F51 – Pan-STARRS 1, Haleakala MPS 456159
2013 02 10.46106 07 57 41.182 +11 13 23.11 21.0 w F51 – Pan-STARRS 1, Haleakala MPS 456159
2014 04 04.45042 13 59 37.915 -11 32 41.58 20.9 w F51 – Pan-STARRS 1, Haleakala MPS 510964
2014 04 04.46180 13 59 37.412 -11 32 37.40 21.1 w F51 – Pan-STARRS 1, Haleakala MPS 510964
2014 04 04.47315 13 59 36.903 -11 32 33.42 21.1 w F51 – Pan-STARRS 1, Haleakala MPS 510964
2014 04 04.48450 13 59 36.409 -11 32 29.33 20.9 w F51 – Pan-STARRS 1, Haleakala MPS 510964
2014 04 23.06638 13 45 10.30 -09 32 16.8 20.7 V W84 – Cerro Tololo-DECam MPS 789496
2014 04 23.06954 13 45 10.14 -09 32 15.6   W84 – Cerro Tololo-DECam MPS 789496
2014 04 23.07273 13 45 09.98 -09 32 14.3   W84 – Cerro Tololo-DECam MPS 789496
2014 04 23.07598 13 45 09.82 -09 32 13.0   W84 – Cerro Tololo-DECam MPS 789496
2014 04 23.07923 13 45 09.66 -09 32 11.7   W84 – Cerro Tololo-DECam MPS 789496
2014 04 24.03929 13 44 23.76 -09 25 51.0 20.8   W84 – Cerro Tololo-DECam MPS 789496
2014 04 24.04248 13 44 23.60 -09 25 49.7   W84 – Cerro Tololo-DECam MPS 789496
2014 04 24.04564 13 44 23.45 -09 25 48.4   W84 – Cerro Tololo-DECam MPS 789496
2014 04 24.04890 13 44 23.29 -09 25 47.2   W84 – Cerro Tololo-DECam MPS 789496
2014 04 24.05215 13 44 23.13 -09 25 46.0   W84 – Cerro Tololo-DECam MPS 789496
2014 05 03.24654 13 37 21.05 -08 27 07.9 21.2 V G96 – Mt. Lemmon Survey MPS 515096
2014 05 03.25165 13 37 20.81 -08 27 05.8 21.1 V G96 – Mt. Lemmon Survey MPS 515096
2014 05 03.25675 13 37 20.55 -08 27 04.4 21.3 V G96 – Mt. Lemmon Survey MPS 515096
2014 05 03.26186 13 37 20.35 -08 27 01.8 20.1 V G96 – Mt. Lemmon Survey MPS 515096
2014 06 29.27301 13 27 14.620 -06 16 37.20 22.0 w F51 – Pan-STARRS 1, Haleakala MPS 522729
2014 06 29.28411 13 27 14.881 -06 16 38.15 21.8 w F51 – Pan-STARRS 1, Haleakala MPS 522729
2015 07 25.44102 21 01 23.662 -06 26 11.35 19.9 i F52 – Pan-STARRS 2, Haleakala MPS 618376
2015 07 25.45407 21 01 23.038 -06 26 13.74 19.8 i F52 – Pan-STARRS 2, Haleakala MPS 618376
2015 07 25.46680 21 01 22.422 -06 26 16.09 19.7 i F52 – Pan-STARRS 2, Haleakala MPS 618376
2015 07 25.48167 21 01 21.706 -06 26 18.82 20.2 i F52 – Pan-STARRS 2, Haleakala MPS 618376
2015 08 06.26319 20 51 51.90 -07 11 33.6 20.5 r G45 – Space Surveillance Telescope, Atom Site MPS 619612
2015 08 06.26847 20 51 51.62 -07 11 34.8 20.4 r G45 – Space Surveillance Telescope, Atom Site MPS 619612
2015 08 06.27373 20 51 51.39 -07 11 36.4 20.5 r G45 – Space Surveillance Telescope, Atom Site MPS 619612
2015 08 06.27905 20 51 51.08 -07 11 38.3 19.8 r G45 – Space Surveillance Telescope, Atom Site MPS 619612
2015 08 09.35163 20 49 19.890 -07 25 56.75 20.1 w F52 – Pan-STARRS 2, Haleakala MPS 620927
2015 08 09.36383 20 49 19.260 -07 26 00.01 20.0 w F52 – Pan-STARRS 2, Haleakala MPS 620927
2015 08 09.37591 20 49 18.626 -07 26 03.60 20.0 w F52 – Pan-STARRS 2, Haleakala MPS 620927
2015 08 09.38826 20 49 18.004 -07 26 07.18 20.3 w F52 – Pan-STARRS 2, Haleakala MPS 620927
2015 08 12.33279 20 46 55.321 -07 40 35.72 20.1 w F51 – Pan-STARRS 1, Haleakala MPS 620927
2015 08 12.34518 20 46 54.705 -07 40 39.49 20.2 w F51 – Pan-STARRS 1, Haleakala MPS 620928
2015 08 12.35761 20 46 54.086 -07 40 43.26 20.3 w F51 – Pan-STARRS 1, Haleakala MPS 620928
